Theta_e
313 315 317 320 322 323 323 322 323 323 323 323 323 323 323 323 322 322 322 322 322 322 321 321 321 322 321 321 321 320 320 320 320 320 320 319 318 317 316 316 316 316 316 316 316 316 316 315 315 314 314 315 314 314 314 315 314 313 312 313 313 312 311 311 311 312 312 313 313
312 314 315 318 320 322 323 323 322 322 322 323 322 322 322 322 322 322 322 322 322 322 322 322 322 322 321 321 321 321 321 321 320 320 319 319 318 317 317 317 317 316 316 316 316 315 316 315 314 314 314 314 314 314 314 315 314 313 313 313 313 313 313 312 312 312 312 313 313
311 313 314 315 318 320 322 322 322 321 321 321 322 322 322 322 322 322 322 322 322 323 322 322 322 322 321 321 321 321 321 320 320 320 319 318 318 317 317 317 316 316 316 316 316 315 315 315 315 314 314 313 313 313 314 314 314 314 313 313 313 313 313 313 312 312 312 313 313
311 311 312 313 315 317 320 321 322 321 321 321 321 322 322 323 323 323 323 323 323 323 323 322 322 322 322 321 321 321 321 321 320 319 319 318 317 317 317 317 316 315 316 316 316 315 315 315 315 314 314 313 313 313 313 314 314 314 314 314 313 313 313 313 313 313 313 313 313
310 311 311 313 313 315 317 320 321 321 321 321 320 321 322 322 323 323 323 323 323 323 323 323 323 323 322 322 321 321 321 321 321 319 318 318 317 317 317 316 315 315 315 316 316 315 315 315 314 314 314 313 313 313 313 314 313 313 314 313 313 313 313 313 313 313 313 313 313
310 310 311 311 312 313 315 318 320 321 321 321 320 320 320 321 322 322 322 322 323 323 324 324 323 323 322 322 321 321 321 321 321 319 318 317 317 317 317 316 316 316 316 316 315 315 315 315 314 314 314 314 314 314 314 313 313 313 313 312 312 312 313 312 313 313 313 313 313
309 310 310 311 311 312 314 316 318 320 321 320 320 319 320 320 321 321 321 322 323 323 323 323 323 323 322 322 321 321 320 320 320 319 318 317 317 317 316 316 316 316 316 316 315 315 315 315 314 314 314 314 314 314 314 313 313 313 312 312 312 312 312 313 313 314 314 313 313
309 310 310 310 311 312 313 315 318 319 321 320 319 319 319 320 320 321 321 322 322 323 323 323 322 322 322 322 321 321 320 320 319 319 318 317 316 316 316 316 316 316 316 316 315 315 315 315 314 313 313 313 313 313 313 313 313 312 312 312 312 312 313 313 313 314 313 313 313
310 310 310 310 311 312 313 315 317 319 320 320 319 319 319 320 320 321 321 322 322 322 323 323 322 322 322 322 321 321 320 319 319 318 318 317 316 316 316 316 316 316 316 316 315 315 314 314 314 313 313 313 313 313 313 313 312 312 312 312 312 312 312 312 313 313 312 312 312
310 310 310 310 311 311 312 314 317 319 320 320 319 319 320 320 320 321 322 322 322 322 322 322 322 322 322 321 321 320 320 319 319 318 318 317 317 317 316 316 316 316 315 315 315 314 314 314 313 313 313 313 313 313 313 313 312 312 312 312 312 312 311 312 311 311 311 312 312
310 310 310 310 311 312 313 314 316 318 320 320 319 319 319 320 320 321 321 322 322 322 322 322 322 322 321 321 321 320 320 319 319 318 318 317 317 317 316 316 316 315 315 314 315 315 314 314 313 313 313 313 313 313 313 313 312 312 312 312 312 311 311 311 311 310 311 311 311
311 311 311 311 312 312 313 314 316 318 320 320 319 319 318 319 319 320 320 321 321 321 322 322 322 322 321 321 320 320 320 319 319 318 318 317 317 317 317 316 315 315 314 314 314 314 314 314 314 313 313 313 313 313 313 312 312 312 311 312 312 312 311 311 311 311 311 311 311
310 311 311 312 312 312 313 314 315 317 319 320 319 318 318 318 318 319 320 320 320 321 321 321 321 321 321 320 320 320 319 319 319 318 318 317 317 317 316 316 315 315 314 314 314 314 314 314 314 313 313 313 313 313 313 313 312 311 311 312 312 312 311 311 311 310 310 310 311
309 310 311 312 312 313 313 314 315 316 317 318 318 318 318 318 318 319 320 320 319 320 320 320 321 321 320 320 319 319 319 319 318 318 318 317 317 316 316 316 315 315 314 313 313 314 314 314 314 313 313 313 313 313 313 313 312 312 312 312 311 311 311 311 311 310 309 309 310
307 308 310 311 312 312 313 313 314 315 316 316 317 317 318 318 318 318 319 319 319 319 320 320 320 320 320 319 319 319 319 318 318 318 317 317 316 316 316 315 315 314 314 314 314 314 314 314 314 313 313 313 313 313 313 313 313 312 312 312 312 311 311 311 310 309 308 308 309
306 307 308 309 310 311 312 313 314 315 315 316 316 317 317 317 318 318 319 319 319 319 319 319 319 319 319 319 319 318 318 318 318 318 317 317 316 316 315 315 315 314 314 314 314 314 314 314 314 314 313 313 313 313 313 313 313 312 312 312 312 312 311 310 309 308 308 308 308
305 305 306 307 308 309 310 311 313 314 314 315 316 316 317 317 317 318 318 318 318 318 317 317 318 318 317 317 318 318 318 318 317 317 317 316 316 315 315 315 315 315 315 314 314 314 314 314 314 314 314 314 314 313 313 313 312 312 312 311 311 311 311 310 309 308 308 308 308
304 305 305 306 307 307 309 310 311 312 313 314 315 315 316 316 316 316 316 316 316 316 315 316 316 316 316 316 316 317 317 317 317 317 317 316 316 316 315 315 314 315 314 314 314 314 314 313 314 314 314 314 314 313 313 313 312 312 311 311 311 311 311 310 309 309 308 308 309
304 304 305 306 307 307 308 309 310 311 313 314 314 314 315 315 315 315 315 315 315 315 315 315 316 316 316 316 316 316 317 317 317 317 317 317 316 316 315 315 314 314 314 314 314 313 313 313 313 313 314 313 313 312 312 312 312 312 311 311 311 311 311 310 309 309 309 309 309
304 304 305 306 307 308 308 309 310 311 312 313 314 314 315 315 315 315 315 315 315 315 315 315 315 315 316 316 316 316 316 317 317 316 316 316 316 315 315 315 314 314 314 314 314 313 313 313 313 313 313 313 313 312 312 312 312 312 311 311 311 311 311 310 309 309 309 309 309
304 305 306 307 307 308 308 309 309 310 311 312 313 314 315 315 315 315 315 315 316 315 315 315 315 315 315 315 315 315 316 316 316 316 316 316 315 315 315 315 314 314 314 314 314 313 313 313 313 313 314 313 312 312 312 312 312 312 312 311 311 311 311 310 310 309 309 309 308
305 305 306 307 308 308 309 309 309 310 311 311 312 314 314 315 315 315 315 315 315 315 315 315 315 314 314 315 315 315 315 316 316 316 316 316 316 315 315 315 314 314 313 314 314 313 313 313 313 313 314 314 313 313 312 312 311 311 311 311 311 311 310 310 309 309 309 309 308
305 306 307 308 308 309 309 309 309 309 310 310 311 312 313 314 314 314 315 315 315 315 314 314 314 314 315 315 315 315 315 315 315 315 316 316 316 316 315 315 314 314 314 314 314 314 313 313 313 314 314 314 313 312 312 312 312 311 311 311 311 311 310 310 309 309 309 308 308
305 307 307 308 308 309 309 309 309 309 309 310 311 312 313 313 313 314 314 314 314 314 314 314 315 315 315 315 315 315 315 315 315 315 315 316 315 316 316 315 315 314 314 315 315 315 314 314 314 314 314 314 313 312 312 312 312 311 311 310 310 310 309 309 309 309 308 308 307
306 306 307 308 308 308 308 308 308 308 309 310 311 311 312 312 313 313 313 314 314 314 315 315 315 315 315 315 315 315 315 315 314 314 314 315 315 315 316 315 315 315 315 315 317 317 317 316 315 314 314 313 313 313 312 312 312 311 311 310 310 310 309 308 308 308 307 307 306
305 306 306 307 307 307 307 307 308 308 309 309 310 311 311 312 312 312 313 313 313 313 313 314 315 315 315 315 315 315 315 315 315 314 314 314 314 315 315 315 315 315 315 316 318 318 318 317 316 315 314 313 313 312 312 312 312 312 311 310 310 309 308 308 307 307 307 306 306
305 305 306 306 306 306 307 307 307 307 308 309 310 310 310 311 312 313 313 313 313 313 313 313 314 314 315 315 314 314 314 314 315 314 314 314 314 314 314 315 315 315 316 317 318 319 319 318 317 316 314 313 312 312 312 312 311 311 310 310 310 309 308 307 306 306 306 306 306
305 305 305 306 305 306 306 306 306 307 307 308 309 310 310 311 312 312 312 312 312 313 313 313 314 314 313 313 313 313 314 314 314 314 314 314 313 314 314 314 315 315 316 318 319 319 319 319 318 317 315 313 313 312 312 311 311 311 311 310 310 309 308 307 307 306 305 305 305
304 305 305 305 305 305 305 305 306 306 307 308 309 309 310 310 311 311 311 311 311 311 312 312 313 313 313 313 313 313 313 313 313 313 313 313 313 313 314 314 314 316 317 319 319 319 319 319 319 318 317 314 313 312 312 311 311 311 311 310 309 309 308 307 306 306 305 305 305
304 304 304 304 304 305 305 305 305 306 306 307 308 308 309 310 310 311 311 311 311 311 311 311 311 312 312 313 313 313 313 313 313 313 313 313 313 313 314 315 314 315 317 319 320 320 320 319 319 318 317 315 313 312 312 311 311 311 310 309 308 308 307 307 306 305 305 305 305
304 304 304 304 304 305 305 305 305 305 306 306 306 307 307 308 309 310 311 312 312 312 312 311 311 311 311 312 313 313 313 313 313 313 313 313 313 313 314 315 314 315 317 319 320 320 320 319 319 318 317 316 314 312 311 311 311 310 309 308 308 307 307 307 306 305 305 305 305
303 303 304 304 304 304 305 305 305 305 305 306 305 305 305 306 307 309 310 311 312 312 312 311 311 310 310 311 312 312 313 313 313 313 313 313 313 313 314 314 314 315 317 319 319 319 320 319 318 318 317 316 314 312 311 311 310 310 309 309 308 308 307 306 306 305 304 304 304
303 303 304 304 304 304 304 305 305 306 305 305 304 304 304 304 306 308 309 310 311 311 311 311 311 310 311 311 311 311 312 313 313 314 314 314 313 313 313 314 314 315 317 319 319 319 319 319 318 318 317 316 313 311 311 310 310 310 309 309 309 308 307 306 305 305 305 304 305
303 303 304 304 304 304 304 305 305 306 305 304 304 303 303 304 305 307 308 309 309 309 310 310 310 311 311 311 311 312 312 313 313 313 313 314 313 313 313 313 313 315 317 318 319 319 319 319 318 318 317 316 313 311 310 310 310 309 309 309 308 307 307 305 305 305 305 305 305
303 303 303 304 304 304 304 305 305 305 304 304 303 303 303 303 305 306 308 310 309 308 308 308 308 310 311 312 312 312 312 312 312 313 313 313 313 313 313 313 313 315 317 318 319 319 319 319 319 318 317 315 312 311 310 310 309 309 309 309 308 306 305 305 305 305 305 305 305
304 303 303 303 304 304 304 305 305 305 304 303 303 303 303 303 304 306 308 310 310 308 306 307 308 310 311 311 312 312 312 312 312 312 312 313 313 312 312 312 313 315 317 318 318 319 319 319 319 318 317 313 312 310 310 310 309 309 308 307 306 305 304 304 304 304 304 305 305
304 304 304 304 303 304 304 305 304 304 303 302 303 303 303 303 304 305 307 309 309 308 306 307 308 310 311 311 311 312 312 312 312 312 312 313 312 312 312 312 312 314 316 318 318 318 319 319 319 318 315 312 310 310 310 309 309 308 307 306 305 304 303 303 303 303 303 304 304
304 304 304 304 304 304 304 304 304 303 302 302 302 303 303 303 304 304 306 307 308 308 308 308 310 310 311 311 311 312 312 312 312 312 312 312 312 312 312 312 312 313 315 317 318 318 318 320 319 317 314 311 310 310 309 309 308 306 305 304 303 303 302 303 302 302 303 304 306
304 304 304 304 304 304 304 304 304 303 302 302 302 303 303 303 303 304 305 306 306 308 309 310 310 311 311 312 311 311 311 312 312 312 312 311 312 313 313 312 312 313 314 316 317 318 318 319 318 316 314 311 310 309 309 308 306 305 304 303 303 302 301 302 301 301 302 304 308
304 304 304 304 304 304 304 304 303 303 302 302 302 302 303 303 304 304 304 305 305 306 308 310 310 311 312 312 311 310 310 311 311 312 312 311 312 313 314 312 312 313 314 315 316 317 318 318 317 315 313 311 309 309 308 307 305 304 303 302 302 301 301 300 300 301 302 303 307
303 304 304 304 304 304 304 304 303 303 303 302 302 303 304 304 304 304 304 303 304 305 306 308 309 310 311 312 310 310 310 310 311 311 312 312 312 313 314 313 312 312 313 315 316 317 318 317 316 315 313 310 309 308 307 305 304 302 301 301 301 301 300 300 300 300 301 302 304
Wind_Speed
14 14 13 13 11 9 7 5 5 4 4 4 4 4 4 5 5 5 5 5 4 4 4 4 5 5 6 8 9 10 11 11 11 10 10 9 9 9 10 10 10 9 9 9 9 9 9 9 7 6 5 5 5 5 5 4 4 4 4 5 4 4 5 6 5 6 6 5 4
15 15 15 15 14 11 9 6 5 5 4 4 4 4 5 5 5 6 6 6 6 5 5 5 5 6 7 8 9 9 10 10 10 10 9 9 9 10 10 9 9 9 9 9 10 9 8 9 8 6 5 5 5 5 5 6 5 5 5 6 5 4 5 5 5 6 6 6 5
14 14 14 15 15 13 11 8 7 6 6 5 5 5 5 5 5 6 6 7 7 7 6 5 6 7 8 9 8 9 9 10 10 10 9 9 10 10 10 9 10 11 10 10 10 9 8 9 8 6 5 5 6 6 6 7 7 6 6 7 5 4 4 4 5 5 5 5 5
14 14 14 15 17 17 15 10 10 9 8 6 5 5 5 5 5 5 6 7 7 7 7 6 6 7 8 8 9 9 9 10 10 10 10 10 10 11 11 11 11 11 11 10 10 10 10 9 7 6 6 6 7 6 6 6 7 6 6 5 4 4 4 4 4 4 4 4 5
13 13 14 15 17 18 17 14 13 11 9 6 5 4 5 5 5 5 5 6 6 6 7 7 7 7 7 8 9 10 10 10 11 11 10 10 11 11 12 12 11 11 10 10 11 11 11 10 7 6 6 7 6 6 6 7 7 6 5 4 4 4 4 5 4 4 4 4 4
13 14 14 14 16 17 17 15 14 13 11 8 7 6 5 4 4 5 6 6 7 7 8 8 7 7 7 8 9 10 10 10 10 10 10 10 11 11 12 12 11 10 9 9 11 12 11 10 7 5 6 6 6 7 7 7 7 6 5 4 4 4 4 4 4 4 4 4 4
13 14 15 15 16 16 17 17 15 12 11 10 10 9 8 6 6 7 7 7 7 7 7 7 7 7 6 7 8 9 9 10 10 10 11 10 10 11 12 11 11 10 9 9 10 11 11 10 7 6 6 6 6 7 7 7 7 6 6 5 4 3 4 5 4 4 4 5 5
14 15 15 15 16 17 18 19 16 13 11 9 10 10 10 8 8 8 9 8 8 7 7 7 8 8 8 7 8 8 9 10 10 11 11 11 11 12 12 11 11 10 10 10 10 11 10 9 7 6 6 6 5 6 8 9 8 7 7 6 4 4 4 4 5 5 5 6 6
14 15 15 15 15 15 17 18 17 15 12 11 12 12 11 9 8 8 9 9 8 8 8 8 9 10 10 9 9 9 10 10 11 11 12 12 13 13 12 11 11 11 10 10 10 11 10 8 6 6 6 5 5 6 8 10 10 9 8 6 5 4 4 5 6 6 6 6 6
16 16 15 15 14 15 16 17 17 16 14 12 13 13 12 9 8 8 8 8 8 9 9 9 10 11 11 11 10 10 10 11 11 12 12 12 13 13 12 11 12 11 11 10 10 10 9 7 6 6 6 5 6 8 10 11 11 10 8 6 6 6 6 6 6 7 6 6 7
18 17 16 15 15 15 15 16 16 15 13 12 11 11 11 10 8 8 7 7 8 10 10 10 10 10 11 11 11 11 11 11 10 11 12 12 13 13 13 12 12 12 11 11 10 9 8 6 7 7 8 6 8 9 11 12 12 11 9 7 8 8 8 7 7 7 6 7 8
19 18 17 17 16 16 15 15 14 13 13 12 11 11 11 10 8 8 8 8 10 10 10 9 9 10 10 9 10 10 11 11 11 11 11 12 13 13 13 12 12 12 12 12 10 8 7 7 7 8 9 8 8 8 10 12 12 11 10 9 9 9 9 8 7 6 6 6 7
20 19 18 18 17 17 16 15 13 12 12 12 11 11 10 9 8 8 8 9 10 10 9 9 9 9 9 8 9 9 10 10 11 11 11 12 12 12 12 12 12 12 12 11 10 9 8 8 8 9 9 9 8 8 9 12 12 11 10 10 9 9 9 9 8 7 6 6 7
20 19 19 18 18 17 16 15 13 11 11 11 11 10 10 9 8 8 8 10 10 10 9 9 8 8 8 9 9 9 10 10 11 11 11 11 11 11 12 11 12 12 11 10 10 10 9 8 8 9 10 10 9 8 9 10 10 10 10 10 10 10 10 10 9 7 6 7 7
20 20 19 19 18 17 15 15 12 11 11 11 11 10 9 9 8 8 9 10 10 10 9 8 8 8 8 9 9 9 10 10 10 10 11 11 11 11 11 10 11 11 10 9 9 9 9 9 8 9 9 10 9 9 9 9 9 9 9 10 10 10 10 10 10 8 7 7 8
20 20 20 19 19 18 16 15 13 12 12 12 11 10 10 9 8 9 10 11 10 9 9 9 8 7 7 9 9 9 9 8 9 9 10 10 10 10 11 11 11 10 10 10 9 9 9 8 8 8 9 9 9 8 8 9 9 9 9 9 9 9 10 11 10 9 8 8 8
20 20 20 20 20 20 19 17 15 14 13 13 13 11 10 9 8 9 11 12 10 10 10 10 8 7 8 9 10 10 9 8 9 9 9 9 10 11 11 12 11 11 11 10 10 9 9 8 7 7 8 8 8 8 8 8 8 8 8 8 8 9 10 11 10 9 8 8 9
19 19 20 20 20 21 20 20 19 18 17 16 14 12 11 10 9 9 10 10 10 11 11 11 9 7 7 9 10 10 9 9 9 9 9 9 9 11 12 12 12 11 11 11 10 10 9 8 7 7 7 7 8 7 7 7 7 7 7 7 7 8 9 11 11 10 9 9 9
19 19 20 20 20 20 20 20 20 20 20 18 16 14 12 11 11 10 10 10 10 10 11 11 8 7 7 8 9 9 9 9 9 9 9 9 9 10 11 12 12 11 11 11 11 10 9 9 8 7 7 7 7 7 6 7 7 7 7 7 6 7 8 10 10 10 9 9 9
18 19 19 19 18 18 18 18 19 20 20 19 18 16 14 13 12 11 11 10 9 9 9 9 8 7 7 7 9 10 10 9 9 9 8 8 8 8 10 11 11 11 11 10 10 10 10 9 8 7 7 7 7 7 7 7 7 7 6 6 6 7 8 9 10 10 9 9 9
18 18 18 17 17 16 16 17 18 19 20 20 19 17 15 13 12 11 10 9 8 7 7 7 7 6 7 8 9 10 10 8 8 8 7 6 7 7 8 9 9 9 9 10 10 10 10 10 9 8 7 7 7 7 7 7 7 7 6 6 6 7 8 9 9 9 9 9 9
16 16 16 16 16 16 16 17 17 18 19 20 19 17 16 14 12 10 10 9 8 7 7 6 6 6 6 8 8 9 9 8 8 7 6 6 7 8 8 7 7 7 8 9 9 10 10 10 9 8 7 7 8 8 8 8 7 7 7 7 7 7 8 8 9 9 9 8 9
16 15 15 15 15 16 17 17 18 18 19 20 19 17 15 13 11 9 8 8 8 7 6 6 6 6 6 7 7 8 8 8 8 7 6 7 8 8 8 8 8 8 8 8 8 9 9 9 9 8 7 7 8 9 9 9 8 7 7 7 7 8 8 8 8 8 8 9 9
15 15 14 13 15 16 17 17 18 19 20 20 20 18 16 13 10 8 7 8 8 7 6 5 5 5 6 6 6 7 7 8 8 7 6 6 7 8 8 8 8 8 8 6 8 9 9 8 8 7 7 7 8 9 9 9 8 8 7 8 8 8 8 8 9 9 9 9 9
15 15 14 14 15 15 16 16 18 19 20 20 19 18 16 13 10 7 6 6 6 7 6 6 5 4 4 5 6 6 7 7 7 7 6 5 5 6 7 7 7 7 7 7 10 12 11 9 8 7 6 6 7 8 8 9 8 8 8 8 8 8 8 9 9 9 10 10 9
14 14 14 14 14 15 15 16 17 18 20 20 18 16 14 12 9 7 5 5 5 5 6 6 5 5 4 4 5 6 6 5 6 6 6 5 5 5 6 6 6 6 6 9 13 15 14 13 11 9 7 6 7 7 8 8 8 8 8 8 8 8 8 9 9 10 10 9 9
14 14 14 14 14 14 14 15 16 18 19 20 18 16 14 12 9 7 6 4 4 4 4 4 4 4 5 4 5 6 6 5 5 6 7 7 6 6 5 5 5 5 7 12 15 17 16 16 14 12 10 7 7 7 7 7 8 8 8 8 8 8 9 9 10 10 10 9 9
14 14 14 14 14 14 14 14 16 17 18 19 18 16 15 13 11 9 7 5 4 3 3 3 3 3 3 4 5 6 6 6 5 6 7 8 7 6 6 5 5 6 9 14 17 18 18 18 17 15 13 9 7 6 7 7 7 7 7 7 8 8 9 9 9 10 10 10 9
14 14 14 14 14 14 14 15 15 16 17 18 18 17 16 14 12 10 8 7 5 4 3 3 2 2 2 3 5 5 6 6 5 5 6 8 8 7 6 6 5 7 11 16 18 19 19 19 19 18 16 12 8 6 5 6 6 6 6 6 7 8 8 9 9 9 9 10 9
13 13 13 14 14 15 15 15 15 15 16 16 17 18 17 15 13 10 8 7 6 5 4 3 2 2 3 3 3 4 5 5 5 5 6 8 8 7 7 7 7 8 11 16 18 18 19 19 19 19 17 14 9 7 5 5 6 6 6 6 7 8 9 9 10 10 10 9 9
13 13 13 14 14 14 15 15 16 16 16 16 18 19 19 17 15 13 10 7 5 5 4 4 4 4 4 4 3 3 4 4 5 6 7 8 8 7 7 7 8 9 11 16 17 18 19 19 19 19 18 16 11 7 6 6 6 6 6 6 8 8 9 9 10 10 10 10 10
12 13 13 13 14 14 15 16 17 18 18 18 19 20 21 20 18 15 12 8 6 5 4 4 4 5 5 4 4 4 4 5 5 6 7 7 7 7 7 7 8 10 12 16 17 18 18 19 19 19 18 16 11 8 7 6 6 6 6 7 8 9 9 9 9 10 11 10 10
12 13 13 14 14 15 15 16 17 18 18 18 19 20 21 21 20 17 14 10 7 5 4 4 4 5 5 5 5 5 6 6 6 6 7 7 7 7 7 7 8 10 13 17 17 18 18 19 19 19 19 17 12 9 7 7 6 6 6 7 8 9 9 9 9 10 10 11 10
12 13 13 13 13 14 14 15 15 16 17 17 18 19 20 20 20 18 16 11 7 5 4 3 4 4 5 5 6 6 6 6 6 6 7 7 7 8 8 7 6 9 13 17 17 18 18 19 19 19 19 17 11 8 7 7 6 6 7 8 8 9 9 9 10 10 11 11 10
13 13 13 13 13 12 13 13 13 14 14 15 17 18 19 19 19 18 16 13 9 6 4 3 3 4 5 5 6 6 6 6 6 7 7 7 7 8 8 8 7 10 14 17 17 18 18 19 19 19 18 15 10 8 7 7 7 7 8 9 9 9 9 9 10 10 10 10 10
13 13 14 13 13 12 12 13 12 12 12 13 15 16 17 17 17 17 17 15 11 7 4 4 4 4 5 6 6 6 6 6 6 6 7 7 7 8 8 8 8 11 14 16 17 18 18 19 19 19 16 12 8 7 6 6 6 7 9 9 9 9 9 9 9 9 9 9 9
13 13 14 14 13 13 12 12 12 11 11 11 12 13 14 15 16 16 17 16 12 9 6 4 4 5 5 5 5 5 5 4 5 5 6 7 7 7 7 8 8 10 13 16 17 17 18 18 19 17 14 9 7 7 6 6 6 7 8 9 9 9 9 8 8 8 8 9 10
13 13 14 14 13 13 13 12 11 10 10 9 10 11 12 13 13 15 16 16 14 11 8 6 6 5 5 5 5 4 4 4 4 5 5 5 6 6 6 7 8 9 12 15 16 17 17 18 18 16 13 9 8 7 6 6 6 7 8 8 8 8 7 6 6 6 8 10 13
12 13 13 13 13 13 13 13 11 10 9 8 8 9 10 11 12 13 14 15 14 13 11 9 7 6 6 5 4 3 3 3 4 3 3 3 3 5 6 6 7 8 10 14 16 16 17 17 17 16 14 10 8 7 7 6 7 8 8 8 7 7 6 5 5 5 7 11 16
12 12 13 13 13 13 13 13 11 9 7 7 7 8 9 10 11 12 13 13 13 13 13 11 10 8 7 6 4 3 1 2 2 2 2 1 2 3 5 5 6 8 10 14 15 16 16 16 17 17 15 10 8 7 7 7 8 9 9 8 7 6 5 5 5 5 6 9 15
11 11 12 13 13 13 12 12 11 9 7 6 5 6 7 8 9 10 11 12 13 13 12 11 11 10 8 7 4 2 0 0 1 1 1 1 1 2 3 3 4 6 9 12 14 15 15 16 18 18 15 9 8 7 7 8 9 9 9 8 7 6 5 5 5 5 6 7 9
Wind_Direction
314 312 309 306 302 297 288 273 260 253 248 248 252 258 262 266 266 265 262 258 255 252 248 244 238 234 227 218 212 209 209 209 208 207 203 197 194 192 194 199 201 202 200 197 196 197 196 194 190 186 184 186 185 185 184 181 180 176 173 172 177 178 176 172 170 166 162 159 158
312 310 307 305 301 296 290 278 265 252 243 237 239 242 246 249 255 258 258 255 252 250 248 247 243 238 232 225 218 213 211 209 206 202 198 193 191 190 192 195 198 199 200 199 198 197 195 191 187 184 182 184 185 186 185 183 181 181 180 178 180 182 181 178 173 168 165 163 159
311 309 308 306 303 299 294 287 276 263 250 240 235 233 234 236 241 247 250 250 249 247 245 245 241 236 232 228 222 217 213 210 203 197 193 190 189 188 189 192 195 197 199 199 199 198 195 190 186 182 180 182 183 185 186 184 182 183 184 182 183 183 181 181 176 171 167 163 155
309 309 307 306 304 301 298 292 284 274 263 248 239 233 231 231 234 238 243 247 247 246 243 240 238 233 229 226 220 216 212 207 200 195 191 189 186 186 188 191 195 198 199 198 199 199 196 189 184 181 180 181 183 186 187 185 183 182 182 182 185 183 179 178 177 174 166 156 151
308 307 306 305 303 301 298 293 287 280 274 262 249 238 234 233 234 236 239 241 242 241 240 238 236 232 227 223 218 214 210 205 199 195 191 188 185 185 187 191 196 199 199 197 198 198 196 189 184 181 181 181 183 187 188 185 180 177 177 183 188 185 178 174 174 167 156 148 150
307 305 303 301 301 299 297 295 290 285 280 276 264 251 241 236 236 236 237 238 240 241 241 242 242 238 232 225 219 213 208 203 199 195 191 188 186 185 186 190 195 198 198 196 198 198 196 189 185 182 182 182 185 186 185 180 175 172 173 181 188 185 176 167 159 150 144 147 153
304 303 302 300 300 299 298 297 294 289 284 280 272 262 249 240 240 240 240 241 243 243 243 244 247 246 240 231 223 215 208 202 197 192 189 187 186 185 186 188 191 194 195 197 199 199 196 189 185 183 184 184 184 182 180 176 172 172 174 179 181 180 171 159 145 139 143 152 158
305 303 301 300 299 298 298 297 295 291 286 279 275 267 257 245 244 244 245 246 247 247 246 246 247 247 244 236 226 217 209 201 195 190 187 186 186 185 185 185 187 190 193 196 199 199 197 190 186 185 186 185 183 179 177 174 172 173 174 175 173 174 170 156 142 141 147 157 161
309 305 302 299 297 297 296 296 294 291 287 281 278 274 267 254 248 248 250 250 250 249 248 248 247 245 242 236 227 218 210 201 195 191 188 187 186 185 184 183 186 188 191 194 198 198 196 190 186 186 186 185 181 178 176 175 175 175 174 170 168 169 168 156 145 145 151 161 165
314 310 306 301 298 295 294 294 293 290 285 280 277 276 272 264 256 252 251 252 253 252 251 249 247 244 239 233 225 218 211 204 197 192 188 186 184 183 182 182 184 186 189 191 194 195 194 189 186 186 187 184 180 178 178 177 177 176 174 168 166 166 165 157 146 147 155 167 170
320 316 311 305 300 296 294 293 291 288 283 277 274 273 273 268 260 254 252 253 254 253 252 250 247 242 237 229 221 214 208 203 198 193 188 185 182 182 182 183 183 184 185 187 189 190 189 188 187 187 186 182 181 181 180 180 179 177 172 165 165 165 163 156 149 151 160 172 174
325 322 317 311 304 300 296 293 290 287 283 278 274 272 270 266 259 256 255 254 255 254 253 250 246 242 237 229 218 210 204 200 197 193 189 186 183 183 183 183 183 183 183 185 185 185 186 187 187 186 184 181 182 183 183 183 181 177 170 163 165 164 160 153 149 152 163 174 176
329 327 324 318 312 306 301 296 293 290 286 283 278 274 269 263 258 256 256 256 255 255 253 250 245 242 237 230 217 207 200 197 194 192 189 187 184 183 182 182 182 181 182 183 183 183 184 187 187 185 183 181 182 184 184 184 181 175 168 162 165 163 157 151 148 152 162 173 173
330 330 329 326 322 316 310 305 300 296 291 288 283 279 274 268 262 257 254 253 253 252 251 248 244 239 233 225 214 204 197 192 190 190 189 188 185 182 180 179 178 178 178 179 181 183 184 186 186 184 181 178 181 182 184 183 180 173 166 163 165 162 155 148 146 150 159 169 166
331 331 331 330 329 325 320 315 310 304 299 294 290 287 283 279 271 262 256 252 249 248 246 244 242 237 231 225 216 206 198 192 190 190 189 188 185 181 178 174 172 172 173 175 180 184 186 185 184 182 179 177 178 181 183 181 178 172 167 164 165 161 154 146 145 150 158 166 162
331 331 331 331 331 329 326 322 316 310 306 302 299 296 292 287 281 274 269 263 257 253 251 250 249 246 242 239 233 227 218 209 203 200 197 192 185 179 174 169 167 167 169 172 178 185 188 186 183 180 178 176 178 181 182 180 175 171 168 166 165 160 153 146 146 152 160 166 161
331 331 331 331 330 329 327 324 320 315 310 306 302 299 295 291 288 284 280 276 273 270 267 265 263 260 256 253 248 245 240 233 225 217 209 199 187 177 170 165 163 163 165 169 177 184 188 186 183 181 180 178 180 181 180 176 172 169 166 165 164 160 154 149 149 154 162 168 163
331 331 331 330 329 328 326 323 321 317 313 308 303 299 295 291 288 285 283 281 278 275 272 269 265 260 254 250 248 246 244 239 233 225 216 205 189 176 167 161 161 162 165 170 177 183 185 182 182 181 181 181 182 180 176 169 165 163 162 162 163 160 155 152 153 158 164 170 166
330 329 329 327 326 325 323 322 321 319 316 310 304 298 293 288 284 281 278 275 271 268 267 265 261 254 247 243 243 243 242 239 233 228 222 211 192 174 163 159 159 163 167 171 176 179 180 178 180 180 181 181 180 174 165 157 155 155 156 158 159 158 156 155 156 160 166 171 166
329 328 326 324 322 321 321 321 321 320 317 312 305 298 291 286 282 278 274 270 265 262 261 260 258 254 249 246 247 247 245 242 236 232 227 215 192 172 160 156 159 164 169 171 173 175 176 176 179 180 178 177 172 164 154 149 150 151 153 155 158 158 157 157 158 161 166 169 163
330 327 323 320 318 319 320 321 321 320 318 314 307 299 291 285 281 279 277 276 272 266 260 259 258 257 255 252 252 251 250 247 241 233 221 200 180 165 158 157 162 167 169 168 170 172 175 177 179 178 174 170 165 159 153 150 152 153 155 156 157 158 158 158 158 161 163 163 156
329 327 323 320 319 320 321 322 322 321 319 318 312 304 293 283 279 277 278 281 277 271 265 262 260 257 253 250 251 251 249 245 239 226 204 174 160 155 155 161 170 172 170 166 167 171 174 178 180 177 172 166 164 160 156 154 156 156 156 156 157 157 158 158 158 158 158 154 149
327 327 325 322 322 323 323 324 323 323 322 322 319 312 301 287 280 276 276 277 276 272 267 262 257 253 249 248 251 250 247 240 232 217 193 164 153 153 158 166 175 177 174 168 167 169 173 177 180 178 174 168 165 162 159 157 158 158 157 156 156 157 158 158 156 154 151 147 146
324 325 326 325 325 326 326 326 326 326 326 325 324 318 309 297 288 279 272 272 274 275 272 265 256 248 245 248 253 252 247 238 229 218 199 172 159 158 162 167 174 178 178 173 169 170 171 174 178 179 177 172 166 162 159 158 158 158 156 155 156 157 157 156 153 150 147 145 146
321 323 325 326 328 328 329 330 330 330 329 327 323 317 310 304 298 290 280 275 279 282 283 282 274 262 253 252 256 255 248 237 230 224 218 202 181 171 167 167 171 175 177 177 174 173 172 172 174 175 174 170 164 160 157 157 157 157 156 157 156 156 155 153 150 148 146 145 147
319 321 324 327 329 330 332 332 333 333 332 328 320 314 308 306 302 296 290 284 282 281 282 285 290 290 284 273 265 260 253 240 229 226 227 229 210 191 176 168 169 172 177 182 180 177 175 173 171 169 164 162 160 157 156 156 157 157 157 158 157 155 153 151 149 148 147 147 149
317 320 322 325 329 332 333 334 335 336 334 330 322 316 312 312 308 304 299 293 288 284 283 284 290 294 295 289 277 268 259 251 238 232 232 236 228 208 184 170 167 170 177 184 184 182 179 175 170 165 160 156 156 156 156 156 157 157 158 160 158 156 153 151 149 148 147 148 150
316 318 321 325 330 333 334 334 336 338 337 332 325 321 318 318 317 314 312 311 311 310 305 298 290 286 283 279 274 268 263 257 250 242 237 237 234 217 191 171 169 174 180 184 186 186 183 177 171 165 159 155 154 154 154 154 156 157 158 160 158 155 152 150 149 148 148 149 150
315 318 321 325 330 334 336 336 337 338 337 333 328 324 321 320 320 317 314 310 312 312 310 304 297 280 261 255 259 261 261 258 253 248 242 239 235 220 196 173 171 177 183 186 188 188 186 180 172 165 160 156 153 152 153 154 156 157 158 159 158 155 153 151 151 150 149 150 150
314 318 321 325 330 334 337 337 337 337 337 334 331 327 324 323 322 320 316 308 304 301 298 296 292 283 272 264 261 262 261 258 251 244 239 237 232 218 196 176 173 179 185 188 189 189 187 182 173 166 160 156 152 149 150 153 155 155 156 156 155 154 153 152 152 152 152 151 150
314 318 321 325 330 334 336 337 337 337 337 335 333 331 329 328 327 323 317 309 302 297 295 292 288 283 278 275 272 267 261 255 245 237 233 231 223 209 190 175 173 179 185 189 190 189 187 184 176 168 161 156 152 148 148 152 154 154 154 153 153 153 153 153 154 154 152 150 150
315 318 322 325 330 333 336 336 336 337 337 336 335 333 332 331 329 324 317 306 299 293 292 291 290 286 283 279 274 267 259 250 239 228 221 217 211 200 187 177 175 179 185 189 190 190 188 184 178 170 163 157 151 147 147 150 151 151 150 150 152 154 155 156 155 152 150 148 149
316 319 322 325 329 332 334 335 334 335 336 337 336 335 333 331 328 324 318 306 296 286 281 277 280 282 283 281 275 267 258 249 239 229 219 209 200 192 185 180 177 180 185 189 191 191 189 185 180 173 165 157 150 146 146 147 147 147 147 149 153 156 156 155 151 149 148 149 151
317 318 320 323 326 330 332 332 331 332 334 336 337 336 334 331 327 323 318 308 297 285 275 270 272 276 280 281 278 271 262 252 242 234 224 211 198 188 182 180 179 182 185 189 191 192 190 186 183 176 167 156 148 143 144 145 144 145 147 151 155 157 156 151 147 147 149 151 153
317 317 318 320 323 326 328 328 328 330 333 335 337 336 334 331 327 322 318 311 304 293 281 278 278 280 283 283 281 275 267 257 245 236 228 220 204 190 182 178 177 181 185 189 192 193 191 189 185 178 167 152 144 139 141 143 144 147 150 153 155 154 151 147 147 149 151 153 153
316 316 316 318 320 323 325 326 326 328 331 334 336 336 334 331 327 324 322 319 313 304 292 286 286 286 286 285 283 278 270 257 244 235 229 224 214 200 187 176 175 180 185 189 192 194 193 190 186 177 166 148 137 134 137 141 144 147 150 151 152 149 147 145 148 151 153 153 149
314 314 315 316 318 320 322 323 324 326 329 332 335 335 333 330 328 328 328 327 321 313 302 292 291 287 284 281 282 280 275 261 243 231 224 220 216 207 195 181 177 180 185 189 193 194 194 192 187 176 162 139 131 130 133 136 140 144 146 146 144 143 143 144 148 149 149 147 144
313 313 313 314 316 318 319 320 321 323 326 329 332 334 333 331 329 330 330 330 325 319 311 301 294 288 282 278 279 282 282 277 254 234 220 212 211 209 203 191 181 181 186 190 193 195 197 196 187 174 157 131 130 129 131 133 137 139 141 140 138 137 138 140 143 142 141 142 143
312 312 312 312 314 315 316 317 318 319 322 327 331 333 334 332 330 329 329 328 325 322 317 310 302 294 287 284 284 286 290 290 272 248 219 200 204 211 211 204 189 184 185 189 192 197 201 200 183 164 147 130 129 129 130 132 135 136 137 136 134 133 132 132 132 134 136 140 144
312 311 311 311 312 313 313 313 314 316 320 326 330 333 333 331 328 326 325 324 324 324 321 317 312 305 297 291 287 287 293 298 285 265 230 175 198 219 222 219 200 189 185 186 192 199 203 198 174 154 139 130 130 129 130 133 135 136 137 136 134 133 131 129 127 130 134 139 145
312 311 311 310 310 310 310 310 311 314 318 324 326 327 327 327 325 325 324 323 323 323 322 320 318 314 308 298 292 285 266 241 261 251 223 172 201 234 239 237 216 197 186 183 191 199 199 185 161 147 137 132 131 131 133 135 136 138 138 138 137 136 134 131 128 129 133 137 143